Hovedside
METAR-TAF:

METAR-TAF

Lufthavner :

Vilhelmina, Sverige

breddegrad: 64-34-44N, lengdegrad: 016-50-00E, høyde over havet: 347 m

Gjeldene værobservasjon

Denne rapporten ble laget for 1 time og 5 minutter siden, klokken 03:50 UTC
Flau vind
Temperatur -3°C
Luftfuktighet 80%
Trykk 1013 hPa
Sikt 10 km eller mer

METAR: ESNV 160350Z 00000KT 9999 NSC M03/M06 Q1013

Tid: 06:55 (04:55 UTC)


TAF: fraværende

Værobservasjoner og værvarsel for over 4000 flyplasser (METAR- og TAF-rapporter).

Tilgjengelige stasjoner er representert av de røde og gule prikkene på kartet.

Hold musepekeren over prikken for å se navnet på stasjonen.

Klikk så for å se værobservasjoner og -varsler.

For å forandre kartet kan du klikke på den grønne knappen med svart kryss for å zoome inn, på den grønne knappen med strek for å zoome ut, eller på de grønne pilene for å se tilstøtende kart.


METAR-TAF: